I2476 LFLL-LFBT

Flight info

Callsign I2476
Flight time N/A
Altitude 25000
Route REPS8S REPSI MEN GAI AGN AGN7R
Aircraft A320/M-S/7123

Departure

Time N/A
Airport Lyon Saint-Exupéry Airport (LFLL)

Arrival

Time 2026-04-30 07:30
Airport Tarbes-Lourdes-Pyrénées Airport (LFBT)
Time Latitude Longitude Altitude Speed Heading
2026-04-30 07:00 45.74613 5.08419 0 ft 0 kts 43°
2026-04-30 07:01 45.74468 5.08618 0 ft 0 kts 175°
2026-04-30 07:03 45.74467 5.08618 0 ft 4 kts 175°
2026-04-30 07:03 45.74182 5.08653 0 ft 77 kts 175°
2026-04-30 07:03 45.73439 5.08743 0 ft 137 kts 175°
2026-04-30 07:04 45.72339 5.08951 0 ft 182 kts 174°
2026-04-30 07:04 45.71052 5.09022 0 ft 206 kts 179°
2026-04-30 07:04 45.69691 5.09146 0 ft 211 kts 175°
2026-04-30 07:04 45.68255 5.09368 0 ft 213 kts 174°
2026-04-30 07:05 45.65130 5.09821 0 ft 245 kts 179°
2026-04-30 07:05 45.63640 5.09301 0 ft 217 kts 219°
2026-04-30 07:05 45.62606 5.07756 0 ft 222 kts 233°
2026-04-30 07:06 45.61711 5.05944 0 ft 226 kts 238°
2026-04-30 07:06 45.60890 5.03997 0 ft 252 kts 241°
2026-04-30 07:06 45.60093 5.01864 0 ft 268 kts 243°
2026-04-30 07:06 45.59277 4.99508 0 ft 270 kts 244°
2026-04-30 07:07 45.58489 4.97129 0 ft 275 kts 245°
2026-04-30 07:07 45.57710 4.94732 0 ft 278 kts 245°
2026-04-30 07:07 45.56967 4.92367 0 ft 280 kts 250°
2026-04-30 07:07 45.56421 4.89739 0 ft 282 kts 257°
2026-04-30 07:08 45.56039 4.87102 0 ft 286 kts 260°
2026-04-30 07:08 45.55728 4.84340 0 ft 289 kts 262°
2026-04-30 07:08 45.55467 4.81527 0 ft 291 kts 263°
2026-04-30 07:08 45.55239 4.78640 0 ft 294 kts 264°
2026-04-30 07:09 45.55043 4.75858 0 ft 297 kts 264°
2026-04-30 07:09 45.54859 4.72992 0 ft 299 kts 265°
2026-04-30 07:09 45.54679 4.70020 0 ft 302 kts 265°
2026-04-30 07:09 45.54503 4.66997 0 ft 305 kts 265°
2026-04-30 07:10 45.54332 4.63964 0 ft 313 kts 265°
2026-04-30 07:10 45.54215 4.61892 0 ft 321 kts 265°
2026-04-30 07:10 45.54036 4.58686 0 ft 333 kts 265°
2026-04-30 07:10 45.52823 4.37199 0 ft 383 kts 265°
2026-04-30 07:11 45.37304 4.07393 0 ft 420 kts 218°
2026-04-30 07:11 45.25457 3.94083 0 ft 426 kts 219°
2026-04-30 07:11 45.08035 3.73228 0 ft 441 kts 221°
2026-04-30 07:11 44.89407 3.50572 0 ft 474 kts 221°
2026-04-30 07:12 44.78676 3.37622 0 ft 470 kts 220°
2026-04-30 07:12 44.76210 3.34659 0 ft 470 kts 220°
2026-04-30 07:12 44.73719 3.31670 0 ft 470 kts 220°
2026-04-30 07:12 44.71237 3.28697 0 ft 469 kts 220°
2026-04-30 07:13 44.68825 3.25810 0 ft 469 kts 220°
2026-04-30 07:13 44.66425 3.22939 0 ft 470 kts 220°
2026-04-30 07:13 44.63974 3.20004 0 ft 470 kts 221°
2026-04-30 07:13 44.61809 3.16823 0 ft 470 kts 230°
2026-04-30 07:14 44.59844 3.13277 0 ft 469 kts 233°
2026-04-30 07:14 44.57972 3.09661 0 ft 469 kts 234°
2026-04-30 07:14 44.56118 3.05966 0 ft 469 kts 235°
2026-04-30 07:14 44.54280 3.02244 0 ft 470 kts 236°
2026-04-30 07:15 44.52439 2.98483 0 ft 470 kts 236°
2026-04-30 07:15 44.50597 2.94702 0 ft 469 kts 236°
2026-04-30 07:15 44.48780 2.90966 0 ft 469 kts 236°
2026-04-30 07:15 44.46979 2.87255 0 ft 469 kts 236°
2026-04-30 07:16 44.45174 2.83537 0 ft 469 kts 236°
2026-04-30 07:16 44.31567 2.55552 0 ft 470 kts 236°
2026-04-30 07:16 44.05850 2.03287 0 ft 469 kts 235°
2026-04-30 07:16 44.00203 1.91979 0 ft 469 kts 235°
2026-04-30 07:17 43.96719 1.84623 0 ft 468 kts 245°
2026-04-30 07:17 43.95308 1.76320 0 ft 456 kts 262°
2026-04-30 07:17 43.93975 1.59802 0 ft 432 kts 264°
2026-04-30 07:18 43.93413 1.51619 0 ft 426 kts 264°
2026-04-30 07:18 43.92872 1.43710 0 ft 420 kts 264°
2026-04-30 07:18 43.92344 1.36067 0 ft 416 kts 264°
2026-04-30 07:18 43.91812 1.28477 0 ft 409 kts 264°
2026-04-30 07:19 43.91366 1.22181 0 ft 410 kts 264°
2026-04-30 07:19 43.90817 1.14509 0 ft 411 kts 264°
2026-04-30 07:19 43.90254 1.06737 0 ft 411 kts 264°
2026-04-30 07:19 43.89691 0.99049 0 ft 412 kts 264°
2026-04-30 07:20 43.89022 0.91324 0 ft 411 kts 255°
2026-04-30 07:20 43.85887 0.85109 0 ft 413 kts 222°
2026-04-30 07:20 43.81579 0.80230 0 ft 405 kts 218°
2026-04-30 07:20 43.77257 0.75775 0 ft 402 kts 216°
2026-04-30 07:21 43.73053 0.71565 0 ft 398 kts 216°
2026-04-30 07:21 43.69544 0.66532 0 ft 393 kts 243°
2026-04-30 07:21 43.66464 0.61483 0 ft 391 kts 209°
2026-04-30 07:21 43.62188 0.58698 0 ft 387 kts 206°
2026-04-30 07:22 43.54055 0.52346 0 ft 380 kts 212°
2026-04-30 07:22 43.50544 0.49209 0 ft 377 kts 214°
2026-04-30 07:22 43.48515 0.47318 0 ft 378 kts 214°
2026-04-30 07:23 43.46402 0.45302 0 ft 377 kts 215°
2026-04-30 07:23 43.44589 0.43542 0 ft 379 kts 216°
2026-04-30 07:23 43.42849 0.41308 0 ft 374 kts 234°
2026-04-30 07:23 43.41766 0.38341 0 ft 373 kts 249°
2026-04-30 07:24 43.40988 0.35058 0 ft 371 kts 254°
2026-04-30 07:24 43.40354 0.31696 0 ft 368 kts 257°
2026-04-30 07:24 43.39832 0.28455 0 ft 347 kts 258°
2026-04-30 07:24 43.39386 0.25329 0 ft 324 kts 259°
2026-04-30 07:25 43.39015 0.22488 0 ft 307 kts 260°
2026-04-30 07:25 43.38678 0.19737 0 ft 287 kts 261°
2026-04-30 07:25 43.38378 0.17162 0 ft 266 kts 261°
2026-04-30 07:25 43.38124 0.14918 0 ft 247 kts 261°
2026-04-30 07:26 43.37880 0.12726 0 ft 230 kts 261°
2026-04-30 07:26 43.37319 0.10763 0 ft 232 kts 227°
2026-04-30 07:26 43.36146 0.09356 0 ft 232 kts 214°
2026-04-30 07:26 43.34784 0.08245 0 ft 234 kts 206°
2026-04-30 07:27 43.33338 0.07372 0 ft 223 kts 201°
2026-04-30 07:27 43.31970 0.06686 0 ft 218 kts 199°
2026-04-30 07:27 43.30593 0.05965 0 ft 213 kts 202°
2026-04-30 07:27 43.29286 0.05230 0 ft 198 kts 202°
2026-04-30 07:28 43.27996 0.04541 0 ft 201 kts 201°
2026-04-30 07:28 43.26784 0.03917 0 ft 203 kts 201°
2026-04-30 07:28 43.25514 0.03266 0 ft 189 kts 201°
2026-04-30 07:28 43.24326 0.02658 0 ft 184 kts 201°
2026-04-30 07:29 43.23173 0.02067 0 ft 192 kts 201°
2026-04-30 07:29 43.21931 0.01431 0 ft 185 kts 201°
2026-04-30 07:29 43.20857 0.00887 0 ft 152 kts 201°
2026-04-30 07:29 43.19889 0.00397 0 ft 147 kts 201°
2026-04-30 07:30 43.18434 -0.00336 0 ft 70 kts 200°
2026-04-30 07:30 43.18202 -0.00454 0 ft 9 kts 200°
2026-04-30 07:30 43.18176 -0.00467 0 ft 1 kts 200°
2026-04-30 07:31 43.18175 -0.00468 0 ft 0 kts 200°